Time,TemperatureF,DewpointF,PressureIn,WindDirection,WindDirectionDegrees,WindSpeedMPH,WindSpeedGustMPH,Humidity,HourlyPrecipIn,Conditions,Clouds,dailyrainin,SolarRadiationWatts/m^2,SoftwareType,DateUTC
2013-06-06 00:04:00,55.4,51.0,30.12,ESE,115,1.2,1.2,85,0.00,CLR,,0.00,0.0,WeatherDisplay:10.37,2013-06-05 22:04:00,
2013-06-06 00:09:00,55.2,50.8,30.12,ESE,115,3.5,3.5,85,0.00,CLR,,0.00,0.0,WeatherDisplay:10.37,2013-06-05 22:09:00,
2013-06-06 00:19:00,54.9,50.8,30.12,ESE,115,2.3,2.3,86,0.00,CLR,,0.00,0.0,WeatherDisplay:10.37,2013-06-05 22:19:00,
2013-06-06 00:24:00,54.8,50.7,30.12,ESE,115,4.0,4.0,86,0.00,CLR,,0.00,0.0,WeatherDisplay:10.37,2013-06-05 22:24:00,
2013-06-06 00:29:00,54.6,50.5,30.12,ESE,115,3.5,3.5,86,0.00,CLR,,0.00,0.0,WeatherDisplay:10.37,2013-06-05 22:29:00,
2013-06-06 00:34:00,54.4,50.3,30.13,ESE,115,1.2,1.2,86,0.00,CLR,,0.00,0.0,WeatherDisplay:10.37,2013-06-05 22:34:00,
2013-06-06 00:39:00,54.3,50.2,30.12,ESE,115,1.2,1.2,86,0.00,CLR,,0.00,0.0,WeatherDisplay:10.37,2013-06-05 22:39:00,
2013-06-06 00:44:00,54.1,50.0,30.12,ESE,115,2.3,2.3,86,0.00,CLR,,0.00,0.0,WeatherDisplay:10.37,2013-06-05 22:44:00,
2013-06-06 00:49:00,53.9,49.8,30.13,ESE,115,0.0,0.0,86,0.00,CLR,,0.00,0.0,WeatherDisplay:10.37,2013-06-05 22:49:00,
2013-06-06 00:54:00,53.8,49.7,30.13,ESE,115,2.3,2.3,86,0.00,CLR,,0.00,0.0,WeatherDisplay:10.37,2013-06-05 22:54:00,
2013-06-06 00:59:00,53.6,49.5,30.13,ESE,115,2.3,0.0,86,0.00,CLR,,0.00,0.0,WeatherDisplay:10.37,2013-06-05 22:59:00,
2013-06-06 01:04:00,53.4,49.3,30.13,ESE,115,1.2,1.2,86,0.00,CLR,,0.00,0.0,WeatherDisplay:10.37,2013-06-05 23:04:00,
2013-06-06 01:09:00,53.2,49.1,30.13,ESE,115,0.0,0.0,86,0.00,CLR,,0.00,0.0,WeatherDisplay:10.37,2013-06-05 23:09:00,
2013-06-06 01:14:00,53.1,49.0,30.12,ESE,115,0.0,0.0,86,0.00,CLR,,0.00,0.0,WeatherDisplay:10.37,2013-06-05 23:14:00,
2013-06-06 01:19:00,52.9,48.8,30.12,ESE,115,0.0,0.0,86,0.00,CLR,,0.00,0.0,WeatherDisplay:10.37,2013-06-05 23:19:00,
2013-06-06 01:24:00,52.7,48.6,30.12,ESE,115,0.0,0.0,86,0.00,CLR,,0.00,0.0,WeatherDisplay:10.37,2013-06-05 23:24:00,
2013-06-06 01:29:00,52.4,48.3,30.12,ESE,115,0.0,0.0,86,0.00,CLR,,0.00,0.0,WeatherDisplay:10.37,2013-06-05 23:29:00,
2013-06-06 01:34:00,52.2,48.1,30.12,ESE,115,0.0,0.0,86,0.00,CLR,,0.00,0.0,WeatherDisplay:10.37,2013-06-05 23:34:00,
2013-06-06 01:39:00,52.1,48.0,30.12,ESE,115,1.2,1.2,86,0.00,CLR,,0.00,0.0,WeatherDisplay:10.37,2013-06-05 23:39:00,
2013-06-06 01:44:00,51.9,47.8,30.12,ESE,115,0.0,0.0,86,0.00,CLR,,0.00,0.0,WeatherDisplay:10.37,2013-06-05 23:44:00,
2013-06-06 01:49:00,51.8,48.1,30.12,ESE,115,0.0,0.0,87,0.00,CLR,,0.00,0.0,WeatherDisplay:10.37,2013-06-05 23:49:00,
2013-06-06 01:54:00,51.6,47.5,30.12,ESE,115,1.2,0.0,86,0.00,CLR,,0.00,0.0,WeatherDisplay:10.37,2013-06-05 23:54:00,
2013-06-06 01:59:00,51.4,47.4,30.12,ESE,115,0.0,0.0,86,0.00,CLR,,0.00,0.0,WeatherDisplay:10.37,2013-06-05 23:59:00,
2013-06-06 02:04:00,51.4,47.4,30.12,ESE,115,0.0,0.0,86,0.00,CLR,,0.00,0.0,WeatherDisplay:10.37,2013-06-06 00:04:00,
2013-06-06 02:09:00,51.4,47.4,30.12,ESE,115,0.0,0.0,86,0.00,CLR,,0.00,0.0,WeatherDisplay:10.37,2013-06-06 00:09:00,
2013-06-06 02:14:00,51.3,47.3,30.12,ESE,115,0.0,0.0,86,0.00,CLR,,0.00,0.0,WeatherDisplay:10.37,2013-06-06 00:14:00,
2013-06-06 02:19:00,51.4,47.4,30.12,ESE,115,1.0,0.0,86,0.00,CLR,,0.00,0.0,WeatherDisplay:10.37,2013-06-06 00:19:00,
2013-06-06 02:24:00,51.4,47.4,30.12,ESE,115,0.0,0.0,86,0.00,CLR,,0.00,0.0,WeatherDisplay:10.37,2013-06-06 00:24:00,
2013-06-06 02:29:00,51.5,47.5,30.12,ESE,115,2.0,2.0,86,0.00,CLR,,0.00,0.0,WeatherDisplay:10.37,2013-06-06 00:29:00,
2013-06-06 02:34:00,51.6,47.5,30.12,ESE,115,2.0,2.0,86,0.00,CLR,,0.00,0.0,WeatherDisplay:10.37,2013-06-06 00:34:00,
2013-06-06 02:39:00,51.7,47.6,30.12,ESE,115,2.3,2.3,86,0.00,CLR,,0.00,0.0,WeatherDisplay:10.37,2013-06-06 00:39:00,
2013-06-06 02:44:00,51.7,47.6,30.12,ESE,115,2.0,2.0,86,0.00,CLR,,0.00,0.0,WeatherDisplay:10.37,2013-06-06 00:44:00,
2013-06-06 02:49:00,51.8,47.7,30.12,ESE,115,2.3,2.3,86,0.00,CLR,,0.00,0.0,WeatherDisplay:10.37,2013-06-06 00:49:00,
2013-06-06 02:54:00,51.9,47.8,30.12,ESE,115,1.2,1.2,86,0.00,CLR,,0.00,0.0,WeatherDisplay:10.37,2013-06-06 00:54:00,
2013-06-06 02:59:00,51.9,47.8,30.12,ESE,115,2.3,0.0,86,0.00,CLR,,0.00,0.0,WeatherDisplay:10.37,2013-06-06 00:59:00,
2013-06-06 03:04:00,51.9,47.8,30.12,ESE,115,1.2,0.0,86,0.00,CLR,,0.00,0.0,WeatherDisplay:10.37,2013-06-06 01:04:00,
2013-06-06 03:09:00,52.0,47.9,30.12,ESE,115,2.0,2.0,86,0.00,CLR,,0.00,0.0,WeatherDisplay:10.37,2013-06-06 01:09:00,
2013-06-06 03:14:00,52.0,47.9,30.12,ESE,115,0.0,0.0,86,0.00,CLR,,0.00,0.0,WeatherDisplay:10.37,2013-06-06 01:14:00,
2013-06-06 03:19:00,52.0,47.9,30.12,ESE,115,1.2,1.2,86,0.00,CLR,,0.00,0.0,WeatherDisplay:10.37,2013-06-06 01:19:00,
2013-06-06 03:24:00,52.1,48.0,30.12,ESE,115,1.2,1.2,86,0.00,CLR,,0.00,0.0,WeatherDisplay:10.37,2013-06-06 01:24:00,
2013-06-06 03:29:00,52.1,48.0,30.12,ESE,115,0.0,0.0,86,0.00,CLR,,0.00,0.0,WeatherDisplay:10.37,2013-06-06 01:29:00,
2013-06-06 03:34:00,52.1,48.0,30.12,ESE,115,1.2,1.2,86,0.00,CLR,,0.00,0.0,WeatherDisplay:10.37,2013-06-06 01:34:00,
2013-06-06 03:39:00,52.2,48.1,30.12,ESE,115,1.2,0.0,86,0.00,CLR,,0.00,0.0,WeatherDisplay:10.37,2013-06-06 01:39:00,
2013-06-06 03:44:00,52.1,48.0,30.12,ESE,115,1.2,0.0,86,0.00,CLR,,0.00,0.0,WeatherDisplay:10.37,2013-06-06 01:44:00,
2013-06-06 03:49:00,52.1,48.0,30.12,ESE,115,2.3,2.3,86,0.00,CLR,,0.00,0.0,WeatherDisplay:10.37,2013-06-06 01:49:00,
2013-06-06 03:54:00,52.0,47.9,30.12,ESE,115,1.2,1.2,86,0.00,CLR,,0.00,0.0,WeatherDisplay:10.37,2013-06-06 01:54:00,
2013-06-06 03:59:00,52.0,47.9,30.12,ESE,115,1.2,1.2,86,0.00,CLR,,0.00,0.0,WeatherDisplay:10.37,2013-06-06 01:59:00,
2013-06-06 04:04:00,52.0,47.9,30.12,ESE,115,1.2,0.0,86,0.00,CLR,,0.00,0.0,WeatherDisplay:10.37,2013-06-06 02:04:00,
2013-06-06 04:09:00,52.0,47.9,30.12,ESE,115,1.2,1.2,86,0.00,CLR,,0.00,0.0,WeatherDisplay:10.37,2013-06-06 02:09:00,
2013-06-06 04:14:00,52.1,48.0,30.12,ESE,115,0.0,0.0,86,0.00,CLR,,0.00,0.0,WeatherDisplay:10.37,2013-06-06 02:14:00,
2013-06-06 04:19:00,52.0,47.9,30.12,ESE,115,0.0,0.0,86,0.00,CLR,,0.00,0.0,WeatherDisplay:10.37,2013-06-06 02:19:00,
2013-06-06 04:24:00,52.0,47.9,30.12,ESE,115,0.0,0.0,86,0.00,CLR,,0.00,0.0,WeatherDisplay:10.37,2013-06-06 02:24:00,
2013-06-06 04:29:00,52.0,47.9,30.12,ESE,115,0.0,0.0,86,0.00,OVC,,0.00,0.0,WeatherDisplay:10.37,2013-06-06 02:29:00,
2013-06-06 04:34:00,52.0,47.9,30.12,ESE,115,0.0,0.0,86,0.00,OVC,,0.00,0.0,WeatherDisplay:10.37,2013-06-06 02:34:00,
2013-06-06 04:39:00,52.0,47.9,30.12,ESE,115,0.0,0.0,86,0.00,OVC,,0.00,0.0,WeatherDisplay:10.37,2013-06-06 02:39:00,
2013-06-06 04:44:00,52.0,47.9,30.12,ESE,115,1.2,1.2,86,0.00,OVC,,0.00,0.0,WeatherDisplay:10.37,2013-06-06 02:44:00,
2013-06-06 04:49:00,52.0,47.9,30.12,ESE,115,1.2,1.2,86,0.00,OVC,,0.00,0.0,WeatherDisplay:10.37,2013-06-06 02:49:00,
2013-06-06 04:54:00,52.0,47.9,30.12,ESE,115,0.0,0.0,86,0.00,OVC,,0.00,0.0,WeatherDisplay:10.37,2013-06-06 02:54:00,
2013-06-06 04:59:00,52.0,47.9,30.12,ESE,115,0.0,0.0,86,0.00,OVC,,0.00,0.0,WeatherDisplay:10.37,2013-06-06 02:59:00,
2013-06-06 05:04:00,52.0,47.6,30.12,ESE,115,1.2,1.2,85,0.00,OVC,,0.00,0.0,WeatherDisplay:10.37,2013-06-06 03:04:00,
2013-06-06 05:09:00,52.0,47.9,30.12,ESE,115,2.0,2.0,86,0.00,OVC,,0.00,5.0,WeatherDisplay:10.37,2013-06-06 03:09:00,
2013-06-06 05:14:00,52.0,47.6,30.13,ESE,115,1.0,1.0,85,0.00,OVC,,0.00,5.0,WeatherDisplay:10.37,2013-06-06 03:14:00,
2013-06-06 05:19:00,52.0,47.6,30.13,ESE,115,1.0,1.0,85,0.00,OVC,,0.00,5.0,WeatherDisplay:10.37,2013-06-06 03:19:00,
2013-06-06 05:24:00,52.0,47.6,30.13,ESE,115,0.0,0.0,85,0.00,OVC,,0.00,9.0,WeatherDisplay:10.37,2013-06-06 03:24:00,
2013-06-06 05:29:00,52.0,47.6,30.13,ESE,115,0.0,0.0,85,0.00,OVC,,0.00,7.0,WeatherDisplay:10.37,2013-06-06 03:29:00,
2013-06-06 05:34:00,52.0,47.6,30.13,ESE,115,0.0,0.0,85,0.00,OVC,,0.00,11.0,WeatherDisplay:10.37,2013-06-06 03:34:00,
2013-06-06 05:39:00,52.0,47.9,30.13,ESE,115,0.0,0.0,86,0.00,OVC,,0.00,16.0,WeatherDisplay:10.37,2013-06-06 03:39:00,
2013-06-06 05:44:00,52.1,48.0,30.13,ESE,115,0.0,0.0,86,0.00,OVC,,0.00,18.0,WeatherDisplay:10.37,2013-06-06 03:44:00,
2013-06-06 05:49:00,52.2,48.1,30.13,ESE,115,0.0,0.0,86,0.00,OVC,,0.00,12.0,WeatherDisplay:10.37,2013-06-06 03:49:00,
2013-06-06 05:54:00,52.3,47.9,30.14,ESE,115,0.0,0.0,85,0.00,OVC,,0.00,12.0,WeatherDisplay:10.37,2013-06-06 03:54:00,
2013-06-06 05:59:00,52.3,47.9,30.13,ESE,115,0.0,0.0,85,0.00,OVC,,0.00,11.0,WeatherDisplay:10.37,2013-06-06 03:59:00,
2013-06-06 06:01:00,52.3,47.9,30.13,ESE,115,0.0,0.0,85,0.00,OVC,,0.00,11.0,WeatherDisplay:10.37,2013-06-06 04:01:00,
2013-06-06 06:02:00,52.3,47.9,30.14,ESE,115,0.0,0.0,85,0.00,OVC,,0.00,11.0,WeatherDisplay:10.37,2013-06-06 04:02:00,
2013-06-06 06:07:00,52.4,48.0,30.13,ESE,115,0.0,0.0,85,0.00,OVC,,0.00,11.0,WeatherDisplay:10.37,2013-06-06 04:07:00,
2013-06-06 06:08:00,52.4,48.0,30.13,ESE,115,0.0,0.0,85,0.00,OVC,,0.00,11.0,WeatherDisplay:10.37,2013-06-06 04:08:00,
2013-06-06 06:09:00,52.4,48.0,30.14,ESE,115,0.0,0.0,85,0.00,OVC,,0.00,11.0,WeatherDisplay:10.37,2013-06-06 04:09:00,
2013-06-06 06:10:00,52.4,48.0,30.13,ESE,115,0.0,0.0,85,0.00,OVC,,0.00,11.0,WeatherDisplay:10.37,2013-06-06 04:10:00,
2013-06-06 06:15:00,52.5,48.1,30.14,ESE,115,0.0,0.0,85,0.00,OVC,,0.00,14.0,WeatherDisplay:10.37,2013-06-06 04:15:00,
2013-06-06 06:20:00,52.5,48.1,30.14,ESE,115,0.0,0.0,85,0.00,OVC,,0.00,18.0,WeatherDisplay:10.37,2013-06-06 04:20:00,
2013-06-06 06:25:00,52.6,48.2,30.14,ESE,115,0.0,0.0,85,0.00,OVC,,0.00,28.0,WeatherDisplay:10.37,2013-06-06 04:25:00,
2013-06-06 06:30:00,52.6,48.2,30.14,ESE,115,0.0,0.0,85,0.00,OVC,,0.00,35.0,WeatherDisplay:10.37,2013-06-06 04:30:00,
2013-06-06 06:35:00,52.7,48.3,30.14,East,83,0.0,0.0,85,0.00,OVC,,0.00,39.0,WeatherDisplay:10.37,2013-06-06 04:35:00,
2013-06-06 06:40:00,52.9,48.5,30.14,SW,232,0.0,0.0,85,0.00,OVC,,0.00,40.0,WeatherDisplay:10.37,2013-06-06 04:40:00,
2013-06-06 06:45:00,52.9,48.5,30.14,SW,232,0.0,0.0,85,0.00,OVC,,0.00,54.0,WeatherDisplay:10.37,2013-06-06 04:45:00,
2013-06-06 06:50:00,53.0,48.6,30.14,SW,232,1.2,1.2,85,0.00,OVC,,0.00,58.0,WeatherDisplay:10.37,2013-06-06 04:50:00,
2013-06-06 06:55:00,53.2,48.8,30.14,SW,232,1.2,1.2,85,0.00,OVC,,0.00,53.0,WeatherDisplay:10.37,2013-06-06 04:55:00,
2013-06-06 07:00:00,53.3,48.9,30.14,SW,232,2.3,2.3,85,0.00,OVC,,0.00,62.0,WeatherDisplay:10.37,2013-06-06 05:00:00,
2013-06-06 07:05:00,53.5,49.1,30.14,SW,232,1.2,0.0,85,0.00,OVC,,0.00,62.0,WeatherDisplay:10.37,2013-06-06 05:05:00,
2013-06-06 07:10:00,53.6,49.2,30.14,SW,232,3.5,3.5,85,0.00,OVC,,0.00,60.0,WeatherDisplay:10.37,2013-06-06 05:10:00,
2013-06-06 07:15:00,53.7,49.3,30.14,SW,232,2.0,2.0,85,0.00,OVC,,0.00,65.0,WeatherDisplay:10.37,2013-06-06 05:15:00,
2013-06-06 07:20:00,53.8,49.4,30.14,SW,232,3.5,3.5,85,0.00,OVC,,0.00,74.0,WeatherDisplay:10.37,2013-06-06 05:20:00,
2013-06-06 07:25:00,53.9,49.5,30.14,SW,232,1.2,1.2,85,0.00,OVC,,0.00,63.0,WeatherDisplay:10.37,2013-06-06 05:25:00,
2013-06-06 07:30:00,53.9,49.5,30.14,SW,232,2.3,2.3,85,0.00,OVC,,0.00,77.0,WeatherDisplay:10.37,2013-06-06 05:30:00,
2013-06-06 07:35:00,54.1,49.7,30.15,SW,232,0.0,0.0,85,0.00,OVC,,0.00,81.0,WeatherDisplay:10.37,2013-06-06 05:35:00,
2013-06-06 07:40:00,54.2,49.8,30.15,SW,232,1.2,1.2,85,0.00,OVC,,0.00,84.0,WeatherDisplay:10.37,2013-06-06 05:40:00,
2013-06-06 07:45:00,54.3,49.9,30.15,SW,232,2.3,2.3,85,0.00,OVC,,0.00,114.0,WeatherDisplay:10.37,2013-06-06 05:45:00,
2013-06-06 07:50:00,54.4,50.0,30.15,SW,232,1.2,1.2,85,0.00,OVC,,0.00,104.0,WeatherDisplay:10.37,2013-06-06 05:50:00,
2013-06-06 07:55:00,54.5,50.4,30.15,SW,232,3.5,3.5,86,0.00,OVC,,0.00,90.0,WeatherDisplay:10.37,2013-06-06 05:55:00,
2013-06-06 08:00:00,54.6,50.2,30.15,SW,232,2.0,2.0,85,0.00,OVC,,0.00,93.0,WeatherDisplay:10.37,2013-06-06 06:00:00,
2013-06-06 08:05:00,54.6,50.5,30.16,SW,232,1.0,0.0,86,0.00,OVC,,0.00,62.0,WeatherDisplay:10.37,2013-06-06 06:05:00,
2013-06-06 08:10:00,54.7,50.6,30.16,SW,232,2.0,2.0,86,0.00,OVC,,0.00,70.0,WeatherDisplay:10.37,2013-06-06 06:10:00,
2013-06-06 08:15:00,54.6,50.5,30.16,SW,232,2.0,2.0,86,0.00,OVC,,0.00,93.0,WeatherDisplay:10.37,2013-06-06 06:15:00,
2013-06-06 08:20:00,54.5,50.4,30.16,WNW,288,3.5,3.5,86,0.00,OVC,,0.00,86.0,WeatherDisplay:10.37,2013-06-06 06:20:00,
2013-06-06 08:25:00,54.5,50.4,30.16,WNW,289,2.3,2.3,86,0.00,OVC,,0.00,118.0,WeatherDisplay:10.37,2013-06-06 06:25:00,
2013-06-06 08:30:00,54.6,50.5,30.16,WNW,289,3.5,3.5,86,0.00,OVC,,0.00,102.0,WeatherDisplay:10.37,2013-06-06 06:30:00,
2013-06-06 08:35:00,54.7,50.6,30.16,WNW,289,1.2,0.0,86,0.00,OVC,,0.00,123.0,WeatherDisplay:10.37,2013-06-06 06:35:00,
2013-06-06 08:40:00,54.9,50.8,30.16,WNW,289,2.3,2.3,86,0.00,OVC,,0.00,120.0,WeatherDisplay:10.37,2013-06-06 06:40:00,
2013-06-06 08:45:00,54.9,50.8,30.16,WNW,289,0.0,0.0,86,0.00,OVC,,0.00,142.0,WeatherDisplay:10.37,2013-06-06 06:45:00,
2013-06-06 08:50:00,55.0,50.9,30.16,WNW,289,2.3,2.3,86,0.00,OVC,,0.00,167.0,WeatherDisplay:10.37,2013-06-06 06:50:00,
2013-06-06 08:55:00,55.2,51.1,30.16,WNW,289,2.3,2.3,86,0.00,OVC,,0.00,171.0,WeatherDisplay:10.37,2013-06-06 06:55:00,
2013-06-06 09:00:00,55.4,51.3,30.17,WNW,289,2.3,2.3,86,0.00,OVC,,0.00,155.0,WeatherDisplay:10.37,2013-06-06 07:00:00,
2013-06-06 09:05:00,55.4,51.0,30.17,WNW,289,1.0,1.0,85,0.00,OVC,,0.00,160.0,WeatherDisplay:10.37,2013-06-06 07:05:00,
2013-06-06 09:10:00,55.7,51.6,30.17,WNW,292,2.3,2.3,86,0.00,OVC,,0.00,135.0,WeatherDisplay:10.37,2013-06-06 07:10:00,
2013-06-06 09:15:00,55.8,51.7,30.17,WNW,295,2.0,2.0,86,0.00,OVC,,0.00,174.0,WeatherDisplay:10.37,2013-06-06 07:15:00,
2013-06-06 09:20:00,55.8,51.4,30.17,WNW,295,0.0,0.0,85,0.00,OVC,,0.00,186.0,WeatherDisplay:10.37,2013-06-06 07:20:00,
2013-06-06 09:25:00,56.0,51.6,30.17,WNW,295,2.3,2.3,85,0.00,OVC,,0.00,197.0,WeatherDisplay:10.37,2013-06-06 07:25:00,
2013-06-06 09:30:00,56.3,51.8,30.17,WNW,295,2.0,2.0,85,0.00,BKN,,0.00,327.0,WeatherDisplay:10.37,2013-06-06 07:30:00,
2013-06-06 09:35:00,57.1,53.0,30.17,WNW,295,1.2,1.2,86,0.00,CLR,,0.00,965.0,WeatherDisplay:10.37,2013-06-06 07:35:00,
2013-06-06 09:40:00,60.2,55.3,30.17,WNW,295,3.5,3.5,84,0.00,CLR,,0.00,742.0,WeatherDisplay:10.37,2013-06-06 07:40:00,
2013-06-06 09:45:00,62.6,56.3,30.17,WNW,295,3.5,3.5,80,0.00,SCT,,0.00,601.0,WeatherDisplay:10.37,2013-06-06 07:45:00,
2013-06-06 09:50:00,62.5,54.8,30.17,WNW,295,1.2,1.2,76,0.00,FEW,,0.00,733.0,WeatherDisplay:10.37,2013-06-06 07:50:00,
2013-06-06 09:55:00,62.8,55.8,30.16,WNW,296,4.0,4.0,78,0.00,CLR,,0.00,835.0,WeatherDisplay:10.37,2013-06-06 07:55:00,
2013-06-06 10:00:00,63.4,56.8,30.16,WNW,296,4.6,4.6,79,0.00,CLR,,0.00,302.0,WeatherDisplay:10.37,2013-06-06 08:00:00,
2013-06-06 10:05:00,63.5,55.4,30.16,WNW,296,3.5,3.5,75,0.00,CLR,,0.00,814.0,WeatherDisplay:10.37,2013-06-06 08:05:00,
2013-06-06 10:10:00,63.8,56.4,30.16,WNW,296,3.5,3.5,77,0.00,CLR,,0.00,824.0,WeatherDisplay:10.37,2013-06-06 08:10:00,
2013-06-06 10:15:00,65.1,56.2,30.16,WNW,296,3.5,3.5,73,0.00,FEW,,0.00,791.0,WeatherDisplay:10.37,2013-06-06 08:15:00,
2013-06-06 10:20:00,64.0,55.2,30.16,NW,304,2.3,2.3,73,0.00,OVC,,0.00,345.0,WeatherDisplay:10.37,2013-06-06 08:20:00,
2013-06-06 10:25:00,63.5,55.8,30.16,NW,304,3.5,3.5,76,0.00,SCT,,0.00,559.0,WeatherDisplay:10.37,2013-06-06 08:25:00,
2013-06-06 10:30:00,63.8,56.1,30.16,NW,310,5.0,5.0,76,0.00,SCT,,0.00,510.0,WeatherDisplay:10.37,2013-06-06 08:30:00,
2013-06-06 10:35:00,64.4,56.7,30.16,NW,310,2.3,2.3,76,0.00,FEW,,0.00,779.0,WeatherDisplay:10.37,2013-06-06 08:35:00,
2013-06-06 10:40:00,64.2,55.4,30.16,NW,311,4.0,4.0,73,0.00,SCT,,0.00,585.0,WeatherDisplay:10.37,2013-06-06 08:40:00,
2013-06-06 10:45:00,64.3,56.9,30.16,NW,311,2.3,2.3,77,0.00,FEW,,0.00,796.0,WeatherDisplay:10.37,2013-06-06 08:45:00,
2013-06-06 10:50:00,65.1,57.0,30.16,NW,312,3.5,3.5,75,0.00,FEW,,0.00,770.0,WeatherDisplay:10.37,2013-06-06 08:50:00,
2013-06-06 10:55:00,65.1,56.2,30.16,NW,313,5.0,5.0,73,0.00,OVC,,0.00,353.0,WeatherDisplay:10.37,2013-06-06 08:55:00,
2013-06-06 11:00:00,63.9,55.8,30.17,West,281,6.9,6.9,75,0.00,OVC,,0.00,279.0,WeatherDisplay:10.37,2013-06-06 09:00:00,
2013-06-06 11:05:00,63.1,55.0,30.17,WNW,288,3.5,3.5,75,0.00,OVC,,0.00,241.0,WeatherDisplay:10.37,2013-06-06 09:05:00,
2013-06-06 11:10:00,62.4,55.4,30.17,WNW,290,3.5,3.5,78,0.00,OVC,,0.00,221.0,WeatherDisplay:10.37,2013-06-06 09:10:00,
2013-06-06 11:15:00,61.9,55.3,30.17,WNW,286,6.9,6.9,79,0.00,OVC,,0.00,278.0,WeatherDisplay:10.37,2013-06-06 09:15:00,
2013-06-06 11:20:00,61.8,55.2,30.17,WNW,286,3.5,3.5,79,0.00,OVC,,0.00,345.0,WeatherDisplay:10.37,2013-06-06 09:20:00,
2013-06-06 11:25:00,62.0,55.4,30.17,WNW,286,3.5,3.5,79,0.00,OVC,,0.00,374.0,WeatherDisplay:10.37,2013-06-06 09:25:00,
2013-06-06 11:30:00,62.2,55.6,30.17,WNW,289,5.8,5.8,79,0.00,BKN,,0.00,392.0,WeatherDisplay:10.37,2013-06-06 09:30:00,
2013-06-06 11:35:00,62.6,55.6,30.17,WNW,289,2.3,2.3,78,0.00,BKN,,0.00,455.0,WeatherDisplay:10.37,2013-06-06 09:35:00,
2013-06-06 11:40:00,63.0,56.0,30.17,WNW,288,5.0,5.0,78,0.00,BKN,,0.00,459.0,WeatherDisplay:10.37,2013-06-06 09:40:00,
2013-06-06 11:45:00,63.1,55.8,30.17,WNW,288,3.5,3.5,77,0.00,BKN,,0.00,434.0,WeatherDisplay:10.37,2013-06-06 09:45:00,
2013-06-06 11:50:00,63.4,56.8,30.16,WNW,288,3.5,3.5,79,0.00,BKN,,0.00,487.0,WeatherDisplay:10.37,2013-06-06 09:50:00,
2013-06-06 11:55:00,64.0,57.7,30.17,WNW,284,5.8,5.8,80,0.00,BKN,,0.00,513.0,WeatherDisplay:10.37,2013-06-06 09:55:00,
2013-06-06 12:00:00,64.6,57.2,30.16,West,281,4.0,4.0,77,0.00,BKN,,0.00,471.0,WeatherDisplay:10.37,2013-06-06 10:00:00,
2013-06-06 12:05:00,64.1,56.4,30.16,West,281,5.0,5.0,76,0.00,BKN,,0.00,396.0,WeatherDisplay:10.37,2013-06-06 10:05:00,
2013-06-06 12:10:00,64.5,57.1,30.16,West,281,4.0,4.0,77,0.00,OVC,,0.00,411.0,WeatherDisplay:10.37,2013-06-06 10:10:00,
2013-06-06 12:15:00,64.1,56.4,30.16,West,281,3.5,3.5,76,0.00,OVC,,0.00,357.0,WeatherDisplay:10.37,2013-06-06 10:15:00,
2013-06-06 12:20:00,64.0,57.4,30.16,West,281,3.5,3.5,79,0.00,OVC,,0.00,387.0,WeatherDisplay:10.37,2013-06-06 10:20:00,
2013-06-06 12:25:00,63.7,56.4,30.16,West,281,1.2,1.2,77,0.00,BKN,,0.00,427.0,WeatherDisplay:10.37,2013-06-06 10:25:00,
2013-06-06 12:30:00,64.1,57.1,30.16,West,281,3.0,3.0,78,0.00,BKN,,0.00,417.0,WeatherDisplay:10.37,2013-06-06 10:30:00,
2013-06-06 12:35:00,64.0,55.2,30.16,West,281,2.3,2.3,73,0.00,BKN,,0.00,441.0,WeatherDisplay:10.37,2013-06-06 10:35:00,
2013-06-06 12:40:00,64.0,55.5,30.16,West,281,2.3,2.3,74,0.00,BKN,,0.00,519.0,WeatherDisplay:10.37,2013-06-06 10:40:00,
2013-06-06 12:45:00,64.3,56.6,30.16,West,281,2.3,2.3,76,0.00,SCT,,0.00,582.0,WeatherDisplay:10.37,2013-06-06 10:45:00,
2013-06-06 12:50:00,64.8,57.1,30.16,West,281,4.0,4.0,76,0.00,BKN,,0.00,462.0,WeatherDisplay:10.37,2013-06-06 10:50:00,
2013-06-06 12:55:00,64.7,57.0,30.16,West,281,2.0,2.0,76,0.00,OVC,,0.00,355.0,WeatherDisplay:10.37,2013-06-06 10:55:00,
2013-06-06 13:00:00,64.6,56.9,30.16,West,281,3.5,3.5,76,0.00,OVC,,0.00,274.0,WeatherDisplay:10.37,2013-06-06 11:00:00,
2013-06-06 13:05:00,64.6,57.2,30.16,WNW,286,3.5,3.5,77,0.00,OVC,,0.00,243.0,WeatherDisplay:10.37,2013-06-06 11:05:00,
2013-06-06 13:10:00,64.6,57.2,30.16,WNW,286,4.0,4.0,77,0.00,OVC,,0.00,297.0,WeatherDisplay:10.37,2013-06-06 11:10:00,
2013-06-06 13:15:00,64.6,56.5,30.16,WNW,286,4.0,4.0,75,0.00,BKN,,0.00,427.0,WeatherDisplay:10.37,2013-06-06 11:15:00,
2013-06-06 13:20:00,64.6,56.5,30.16,WNW,286,3.0,3.0,75,0.00,BKN,,0.00,559.0,WeatherDisplay:10.37,2013-06-06 11:20:00,
2013-06-06 13:25:00,65.0,57.2,30.16,WNW,286,2.3,2.3,76,0.00,SCT,,0.00,601.0,WeatherDisplay:10.37,2013-06-06 11:25:00,
2013-06-06 13:30:00,65.7,57.2,30.16,WNW,286,1.2,1.2,74,0.00,BKN,,0.00,489.0,WeatherDisplay:10.37,2013-06-06 11:30:00,
2013-06-06 13:35:00,65.8,57.3,30.16,WNW,286,3.5,3.5,74,0.00,OVC,,0.00,346.0,WeatherDisplay:10.37,2013-06-06 11:35:00,
2013-06-06 13:40:00,65.9,58.1,30.16,WNW,286,3.5,3.5,76,0.00,OVC,,0.00,262.0,WeatherDisplay:10.37,2013-06-06 11:40:00,
2013-06-06 13:45:00,65.4,57.3,30.16,WNW,286,2.3,2.3,75,0.00,OVC,,0.00,250.0,WeatherDisplay:10.37,2013-06-06 11:45:00,
2013-06-06 13:50:00,65.0,57.2,30.16,WNW,288,6.0,6.0,76,0.00,OVC,,0.00,285.0,WeatherDisplay:10.37,2013-06-06 11:50:00,
2013-06-06 13:55:00,65.0,58.3,30.16,WNW,288,4.6,4.6,79,0.00,OVC,,0.00,304.0,WeatherDisplay:10.37,2013-06-06 11:55:00,
2013-06-06 14:00:00,64.8,57.8,30.16,WNW,294,4.0,4.0,78,0.00,OVC,,0.00,341.0,WeatherDisplay:10.37,2013-06-06 12:00:00,
2013-06-06 14:05:00,65.1,57.7,30.16,WNW,295,4.6,4.6,77,0.00,BKN,,0.00,418.0,WeatherDisplay:10.37,2013-06-06 12:05:00,
2013-06-06 14:10:00,65.7,57.2,30.16,WNW,295,3.5,3.5,74,0.00,BKN,,0.00,415.0,WeatherDisplay:10.37,2013-06-06 12:10:00,
2013-06-06 14:15:00,65.8,58.0,30.16,NW,308,5.8,5.8,76,0.00,BKN,,0.00,441.0,WeatherDisplay:10.37,2013-06-06 12:15:00,
2013-06-06 14:20:00,65.9,57.7,30.15,NW,308,3.5,3.5,75,0.00,BKN,,0.00,466.0,WeatherDisplay:10.37,2013-06-06 12:20:00,
2013-06-06 14:25:00,66.1,57.6,30.16,NW,308,2.0,2.0,74,0.00,OVC,,0.00,311.0,WeatherDisplay:10.37,2013-06-06 12:25:00,
2013-06-06 14:30:00,66.1,57.9,30.16,NW,308,2.3,2.3,75,0.00,OVC,,0.00,385.0,WeatherDisplay:10.37,2013-06-06 12:30:00,
2013-06-06 14:35:00,66.2,57.7,30.15,NW,308,3.5,3.5,74,0.00,OVC,,0.00,313.0,WeatherDisplay:10.37,2013-06-06 12:35:00,
2013-06-06 14:40:00,66.2,57.3,30.15,NW,308,2.3,2.3,73,0.00,OVC,,0.00,272.0,WeatherDisplay:10.37,2013-06-06 12:40:00,
2013-06-06 14:45:00,66.4,57.9,30.15,NW,308,3.0,3.0,74,0.00,OVC,,0.00,255.0,WeatherDisplay:10.37,2013-06-06 12:45:00,
2013-06-06 14:50:00,66.4,57.9,30.15,NW,308,3.5,3.5,74,0.00,OVC,,0.00,239.0,WeatherDisplay:10.37,2013-06-06 12:50:00,
2013-06-06 14:55:00,66.8,58.2,30.15,NW,308,3.5,3.5,74,0.00,FEW,,0.00,870.0,WeatherDisplay:10.37,2013-06-06 12:55:00,
2013-06-06 15:00:00,67.9,58.9,30.15,NW,308,3.5,3.5,73,0.00,FEW,,0.00,824.0,WeatherDisplay:10.37,2013-06-06 13:00:00,
2013-06-06 15:05:00,68.4,57.8,30.15,NW,308,1.2,0.0,69,0.00,FEW,,0.00,849.0,WeatherDisplay:10.37,2013-06-06 13:05:00,
2013-06-06 15:10:00,69.0,58.0,30.15,NW,308,2.3,2.3,68,0.00,CLR,,0.00,958.0,WeatherDisplay:10.37,2013-06-06 13:10:00,
2013-06-06 15:15:00,69.1,57.7,30.15,NW,311,3.5,3.5,67,0.00,CLR,,0.00,1020.0,WeatherDisplay:10.37,2013-06-06 13:15:00,
2013-06-06 15:20:00,68.9,57.9,30.15,NW,311,3.5,3.5,68,0.00,OVC,,0.00,287.0,WeatherDisplay:10.37,2013-06-06 13:20:00,
2013-06-06 15:25:00,68.3,58.9,30.15,NW,311,3.5,3.5,72,0.00,OVC,,0.00,327.0,WeatherDisplay:10.37,2013-06-06 13:25:00,
2013-06-06 15:30:00,68.1,57.5,30.15,NW,306,3.5,3.5,69,0.00,BKN,,0.00,512.0,WeatherDisplay:10.37,2013-06-06 13:30:00,
2013-06-06 15:35:00,68.5,57.9,30.15,WNW,294,3.5,3.5,69,0.00,SCT,,0.00,557.0,WeatherDisplay:10.37,2013-06-06 13:35:00,
2013-06-06 15:41:00,69.0,58.4,30.15,WNW,290,2.3,2.3,69,0.00,BKN,,0.00,986.0,WeatherDisplay:10.37,2013-06-06 13:41:00,
2013-06-06 15:46:00,69.0,57.6,30.15,WSW,252,4.0,4.0,67,0.00,BKN,,0.00,390.0,WeatherDisplay:10.37,2013-06-06 13:46:00,
2013-06-06 15:51:00,69.4,57.5,30.15,WSW,243,3.5,3.5,66,0.00,BKN,,0.00,343.0,WeatherDisplay:10.37,2013-06-06 13:51:00,
2013-06-06 15:57:00,69.2,59.4,30.15,SW,219,4.6,4.6,71,0.00,BKN,,0.00,360.0,WeatherDisplay:10.37,2013-06-06 13:57:00,
2013-06-06 16:02:00,69.2,57.8,30.15,SW,217,2.3,2.3,67,0.00,BKN,,0.00,330.0,WeatherDisplay:10.37,2013-06-06 14:02:00,
2013-06-06 16:07:00,68.7,58.9,30.14,SW,217,3.5,3.5,71,0.00,OVC,,0.00,295.0,WeatherDisplay:10.37,2013-06-06 14:07:00,
2013-06-06 16:12:00,68.4,58.2,30.14,SW,217,2.3,2.3,70,0.00,BKN,,0.00,346.0,WeatherDisplay:10.37,2013-06-06 14:12:00,
2013-06-06 16:17:00,68.3,57.7,30.14,SW,217,1.2,1.2,69,0.00,BKN,,0.00,443.0,WeatherDisplay:10.37,2013-06-06 14:17:00,
2013-06-06 16:22:00,69.0,59.6,30.14,SW,217,3.5,3.5,72,0.00,SCT,,0.00,573.0,WeatherDisplay:10.37,2013-06-06 14:22:00,
2013-06-06 16:27:00,69.4,58.4,30.14,SW,217,3.5,3.5,68,0.00,BKN,,0.00,394.0,WeatherDisplay:10.37,2013-06-06 14:27:00,
2013-06-06 16:32:00,69.2,59.0,30.14,SW,217,3.5,3.5,70,0.00,BKN,,0.00,418.0,WeatherDisplay:10.37,2013-06-06 14:32:00,
2013-06-06 16:38:00,69.2,58.2,30.14,SW,217,2.3,2.3,68,0.00,BKN,,0.00,309.0,WeatherDisplay:10.37,2013-06-06 14:38:00,
2013-06-06 16:43:00,68.8,59.0,30.14,SW,225,5.0,5.0,71,0.00,BKN,,0.00,269.0,WeatherDisplay:10.37,2013-06-06 14:43:00,
2013-06-06 16:47:00,68.2,59.2,30.14,SW,225,3.5,3.5,73,0.00,BKN,,0.00,271.0,WeatherDisplay:10.37,2013-06-06 14:47:00,
2013-06-06 16:53:00,68.2,57.6,30.14,SW,225,0.0,0.0,69,0.00,BKN,,0.00,287.0,WeatherDisplay:10.37,2013-06-06 14:53:00,
2013-06-06 16:58:00,68.7,60.1,30.13,SW,225,3.5,3.5,74,0.00,BKN,,0.00,476.0,WeatherDisplay:10.37,2013-06-06 14:58:00,
2013-06-06 17:03:00,69.2,59.8,30.13,WSW,250,4.0,4.0,72,0.00,CLR,,0.00,638.0,WeatherDisplay:10.37,2013-06-06 15:03:00,
2013-06-06 17:08:00,69.7,59.5,30.13,West,271,5.8,5.8,70,0.00,FEW,,0.00,480.0,WeatherDisplay:10.37,2013-06-06 15:08:00,
2013-06-06 17:13:00,69.9,59.3,30.13,West,277,6.9,6.9,69,0.00,SCT,,0.00,417.0,WeatherDisplay:10.37,2013-06-06 15:13:00,
2013-06-06 17:19:00,70.5,59.0,30.13,WNW,283,6.9,6.9,67,0.00,FEW,,0.00,480.0,WeatherDisplay:10.37,2013-06-06 15:19:00,
2013-06-06 17:24:00,70.1,59.9,30.12,WNW,289,4.0,4.0,70,0.00,BKN,,0.00,306.0,WeatherDisplay:10.37,2013-06-06 15:24:00,
2013-06-06 17:29:00,69.4,58.8,30.12,WNW,290,4.6,4.6,69,0.00,BKN,,0.00,246.0,WeatherDisplay:10.37,2013-06-06 15:29:00,
2013-06-06 17:34:00,68.6,58.8,30.12,NW,313,5.8,5.8,71,0.00,BKN,,0.00,279.0,WeatherDisplay:10.37,2013-06-06 15:34:00,
2013-06-06 17:39:00,68.5,58.7,30.12,NW,317,6.0,6.0,71,0.00,CLR,,0.00,206.0,WeatherDisplay:10.37,2013-06-06 15:39:00,
2013-06-06 17:44:00,68.2,58.4,30.12,NNW,331,5.8,5.8,71,0.00,OVC,,0.00,148.0,WeatherDisplay:10.37,2013-06-06 15:44:00,
2013-06-06 17:49:00,67.7,58.7,30.12,NNW,335,4.0,4.0,73,0.00,OVC,,0.00,123.0,WeatherDisplay:10.37,2013-06-06 15:49:00,
2013-06-06 17:54:00,67.5,58.2,30.12,NNW,333,5.0,5.0,72,0.00,OVC,,0.00,113.0,WeatherDisplay:10.37,2013-06-06 15:54:00,
2013-06-06 17:59:00,67.5,58.9,30.12,NNW,332,3.5,3.5,74,0.00,OVC,,0.00,111.0,WeatherDisplay:10.37,2013-06-06 15:59:00,
2013-06-06 18:04:00,67.3,58.7,30.12,NNW,332,4.0,4.0,74,0.00,OVC,,0.00,144.0,WeatherDisplay:10.37,2013-06-06 16:04:00,
2013-06-06 18:09:00,67.1,58.5,30.12,NNW,332,3.5,3.5,74,0.00,OVC,,0.00,153.0,WeatherDisplay:10.37,2013-06-06 16:09:00,
2013-06-06 18:14:00,67.0,58.1,30.12,NNW,332,3.0,3.0,73,0.00,OVC,,0.00,135.0,WeatherDisplay:10.37,2013-06-06 16:14:00,
2013-06-06 18:19:00,66.8,58.2,30.11,NNW,332,3.5,3.5,74,0.00,OVC,,0.00,132.0,WeatherDisplay:10.37,2013-06-06 16:19:00,
2013-06-06 18:24:00,66.7,58.5,30.11,NNW,331,3.5,3.5,75,0.00,OVC,,0.00,120.0,WeatherDisplay:10.37,2013-06-06 16:24:00,
2013-06-06 18:29:00,66.7,58.5,30.11,NNW,331,5.0,5.0,75,0.00,FEW,,0.00,299.0,WeatherDisplay:10.37,2013-06-06 16:29:00,
2013-06-06 18:34:00,66.9,58.7,30.11,NNW,331,4.0,4.0,75,0.00,SCT,,0.00,264.0,WeatherDisplay:10.37,2013-06-06 16:34:00,
2013-06-06 18:39:00,66.9,58.3,30.11,NNW,331,3.5,3.5,74,0.00,BKN,,0.00,162.0,WeatherDisplay:10.37,2013-06-06 16:39:00,
2013-06-06 18:44:00,66.9,58.0,30.11,NNW,331,3.0,3.0,73,0.00,FEW,,0.00,265.0,WeatherDisplay:10.37,2013-06-06 16:44:00,
2013-06-06 18:49:00,67.0,58.1,30.11,NNW,331,4.0,4.0,73,0.00,OVC,,0.00,107.0,WeatherDisplay:10.37,2013-06-06 16:49:00,
2013-06-06 18:54:00,67.0,58.4,30.11,NNW,331,3.5,3.5,74,0.00,BKN,,0.00,155.0,WeatherDisplay:10.37,2013-06-06 16:54:00,
2013-06-06 18:59:00,67.1,58.5,30.11,NNW,331,3.5,3.5,74,0.00,OVC,,0.00,90.0,WeatherDisplay:10.37,2013-06-06 16:59:00,
2013-06-06 19:04:00,67.1,58.5,30.11,NNW,331,3.5,3.5,74,0.00,OVC,,0.00,84.0,WeatherDisplay:10.37,2013-06-06 17:04:00,
2013-06-06 19:09:00,67.0,58.4,30.11,NNW,331,3.5,3.5,74,0.00,BKN,,0.00,88.0,WeatherDisplay:10.37,2013-06-06 17:09:00,
2013-06-06 19:14:00,66.9,58.7,30.11,NNW,331,3.5,3.5,75,0.00,BKN,,0.00,114.0,WeatherDisplay:10.37,2013-06-06 17:14:00,
2013-06-06 19:19:00,66.8,58.6,30.11,NNW,331,2.3,2.3,75,0.00,SCT,,0.00,156.0,WeatherDisplay:10.37,2013-06-06 17:19:00,
2013-06-06 19:24:00,66.7,58.9,30.11,NNW,331,3.5,3.5,76,0.00,BKN,,0.00,104.0,WeatherDisplay:10.37,2013-06-06 17:24:00,
2013-06-06 19:29:00,66.6,58.8,30.11,NNW,331,3.5,3.5,76,0.00,BKN,,0.00,91.0,WeatherDisplay:10.37,2013-06-06 17:29:00,
2013-06-06 19:34:00,66.5,58.7,30.11,NNW,331,3.5,3.5,76,0.00,SCT,,0.00,109.0,WeatherDisplay:10.37,2013-06-06 17:34:00,
2013-06-06 19:39:00,66.5,58.7,30.11,NNW,331,3.5,3.5,76,0.00,BKN,,0.00,88.0,WeatherDisplay:10.37,2013-06-06 17:39:00,
2013-06-06 19:44:00,66.4,58.6,30.11,NNW,331,2.3,2.3,76,0.00,BKN,,0.00,69.0,WeatherDisplay:10.37,2013-06-06 17:44:00,
2013-06-06 19:49:00,66.4,58.2,30.11,NNW,331,2.3,2.3,75,0.00,OVC,,0.00,51.0,WeatherDisplay:10.37,2013-06-06 17:49:00,
2013-06-06 19:54:00,66.3,58.5,30.12,NNW,331,2.0,2.0,76,0.00,OVC,,0.00,40.0,WeatherDisplay:10.37,2013-06-06 17:54:00,
2013-06-06 19:59:00,66.2,58.8,30.11,NNW,331,0.0,0.0,77,0.00,OVC,,0.00,37.0,WeatherDisplay:10.37,2013-06-06 17:59:00,
2013-06-06 20:04:00,66.0,58.6,30.11,NNW,331,2.3,0.0,77,0.00,OVC,,0.00,32.0,WeatherDisplay:10.37,2013-06-06 18:04:00,
2013-06-06 20:09:00,65.9,58.5,30.11,NNW,331,2.3,2.3,77,0.00,OVC,,0.00,28.0,WeatherDisplay:10.37,2013-06-06 18:09:00,
2013-06-06 20:14:00,65.8,58.4,30.12,NNW,331,1.2,1.2,77,0.00,BKN,,0.00,39.0,WeatherDisplay:10.37,2013-06-06 18:14:00,
2013-06-06 20:19:00,65.6,58.2,30.12,NNW,331,1.2,1.2,77,0.00,BKN,,0.00,39.0,WeatherDisplay:10.37,2013-06-06 18:19:00,
2013-06-06 20:24:00,65.5,58.5,30.11,NNW,331,1.2,0.0,78,0.00,BKN,,0.00,30.0,WeatherDisplay:10.37,2013-06-06 18:24:00,
2013-06-06 20:29:00,65.3,58.3,30.12,NNW,331,1.2,1.2,78,0.00,SCT,,0.00,33.0,WeatherDisplay:10.37,2013-06-06 18:29:00,
2013-06-06 20:34:00,65.2,58.2,30.12,NNW,331,1.2,0.0,78,0.00,BKN,,0.00,23.0,WeatherDisplay:10.37,2013-06-06 18:34:00,
2013-06-06 20:39:00,65.0,58.3,30.11,NNW,331,2.3,2.3,79,0.00,BKN,,0.00,19.0,WeatherDisplay:10.37,2013-06-06 18:39:00,
2013-06-06 20:44:00,64.8,58.1,30.11,NNW,331,2.3,2.3,79,0.00,SCT,,0.00,18.0,WeatherDisplay:10.37,2013-06-06 18:44:00,
2013-06-06 20:49:00,64.5,57.8,30.12,NNW,331,2.3,2.3,79,0.00,SCT,,0.00,14.0,WeatherDisplay:10.37,2013-06-06 18:49:00,
2013-06-06 20:54:00,64.1,57.5,30.12,NNW,331,3.0,3.0,79,0.00,CLR,,0.00,11.0,WeatherDisplay:10.37,2013-06-06 18:54:00,
2013-06-06 20:59:00,63.8,57.5,30.12,NNW,331,2.3,2.3,80,0.00,CLR,,0.00,7.0,WeatherDisplay:10.37,2013-06-06 18:59:00,
2013-06-06 21:04:00,63.6,57.3,30.12,NNW,331,2.3,2.3,80,0.00,OVC,,0.00,5.0,WeatherDisplay:10.37,2013-06-06 19:04:00,
2013-06-06 21:09:00,63.3,57.0,30.12,NNW,331,1.2,1.2,80,0.00,OVC,,0.00,0.0,WeatherDisplay:10.37,2013-06-06 19:09:00,
2013-06-06 21:14:00,62.9,57.0,30.12,NNW,331,1.2,1.2,81,0.00,OVC,,0.00,0.0,WeatherDisplay:10.37,2013-06-06 19:14:00,
2013-06-06 21:19:00,62.5,56.6,30.12,NNW,331,1.2,1.2,81,0.00,OVC,,0.00,0.0,WeatherDisplay:10.37,2013-06-06 19:19:00,
2013-06-06 21:24:00,62.2,56.3,30.12,NNW,331,1.2,1.2,81,0.00,OVC,,0.00,0.0,WeatherDisplay:10.37,2013-06-06 19:24:00,
2013-06-06 21:29:00,61.9,56.0,30.12,NNW,331,0.0,0.0,81,0.00,OVC,,0.00,0.0,WeatherDisplay:10.37,2013-06-06 19:29:00,
2013-06-06 21:34:00,61.5,56.0,30.13,NNW,331,0.0,0.0,82,0.00,OVC,,0.00,0.0,WeatherDisplay:10.37,2013-06-06 19:34:00,
2013-06-06 21:39:00,61.1,55.9,30.13,NNW,331,0.0,0.0,83,0.00,CLR,,0.00,0.0,WeatherDisplay:10.37,2013-06-06 19:39:00,
2013-06-06 21:40:00,61.0,55.8,30.13,NNW,331,0.0,0.0,83,0.00,CLR,,0.00,0.0,WeatherDisplay:10.37,2013-06-06 19:40:00,
2013-06-06 21:45:00,60.7,55.5,30.13,NNW,331,0.0,0.0,83,0.00,CLR,,0.00,0.0,WeatherDisplay:10.37,2013-06-06 19:45:00,
2013-06-06 21:50:00,60.4,55.2,30.13,NNW,331,2.3,2.3,83,0.00,CLR,,0.00,0.0,WeatherDisplay:10.37,2013-06-06 19:50:00,
2013-06-06 21:55:00,60.1,55.2,30.13,NNW,331,2.3,2.3,84,0.00,CLR,,0.00,0.0,WeatherDisplay:10.37,2013-06-06 19:55:00,
2013-06-06 22:00:00,59.9,55.1,30.13,NNW,331,2.3,2.3,84,0.00,CLR,,0.00,0.0,WeatherDisplay:10.37,2013-06-06 20:00:00,
2013-06-06 22:05:00,59.7,54.9,30.13,NNW,331,2.3,2.3,84,0.00,CLR,,0.00,0.0,WeatherDisplay:10.37,2013-06-06 20:05:00,
2013-06-06 22:10:00,59.6,54.8,30.13,NNW,331,2.0,2.0,84,0.00,CLR,,0.00,0.0,WeatherDisplay:10.37,2013-06-06 20:10:00,
2013-06-06 22:15:00,59.4,54.6,30.13,NNW,331,3.5,3.5,84,0.00,CLR,,0.00,0.0,WeatherDisplay:10.37,2013-06-06 20:15:00,
2013-06-06 22:20:00,59.2,54.7,30.13,NNW,331,1.2,0.0,85,0.00,CLR,,0.00,0.0,WeatherDisplay:10.37,2013-06-06 20:20:00,
2013-06-06 22:25:00,59.0,54.2,30.13,NNW,331,0.0,0.0,84,0.00,CLR,,0.00,0.0,WeatherDisplay:10.37,2013-06-06 20:25:00,
2013-06-06 22:30:00,58.8,54.3,30.13,NNW,331,0.0,0.0,85,0.00,CLR,,0.00,0.0,WeatherDisplay:10.37,2013-06-06 20:30:00,
2013-06-06 22:35:00,58.6,54.1,30.13,NNW,331,0.0,0.0,85,0.00,CLR,,0.00,0.0,WeatherDisplay:10.37,2013-06-06 20:35:00,
2013-06-06 22:40:00,58.3,53.8,30.13,NNW,331,1.2,0.0,85,0.00,CLR,,0.00,0.0,WeatherDisplay:10.37,2013-06-06 20:40:00,
2013-06-06 22:45:00,58.1,53.6,30.13,NNW,331,1.2,0.0,85,0.00,CLR,,0.00,0.0,WeatherDisplay:10.37,2013-06-06 20:45:00,
2013-06-06 22:50:00,57.8,53.3,30.13,NNW,331,2.3,2.3,85,0.00,CLR,,0.00,0.0,WeatherDisplay:10.37,2013-06-06 20:50:00,
2013-06-06 22:55:00,57.6,53.1,30.14,NNW,331,1.2,1.2,85,0.00,CLR,,0.00,0.0,WeatherDisplay:10.37,2013-06-06 20:55:00,
2013-06-06 23:00:00,57.4,52.9,30.13,NNW,331,1.2,1.2,85,0.00,CLR,,0.00,0.0,WeatherDisplay:10.37,2013-06-06 21:00:00,
2013-06-06 23:05:00,57.3,53.1,30.13,NNW,331,1.0,1.0,86,0.00,CLR,,0.00,0.0,WeatherDisplay:10.37,2013-06-06 21:05:00,
2013-06-06 23:10:00,57.2,53.0,30.13,NNW,331,2.3,2.3,86,0.00,CLR,,0.00,0.0,WeatherDisplay:10.37,2013-06-06 21:10:00,
2013-06-06 23:15:00,57.0,52.5,30.13,NNW,331,0.0,0.0,85,0.00,CLR,,0.00,0.0,WeatherDisplay:10.37,2013-06-06 21:15:00,
2013-06-06 23:20:00,56.8,52.3,30.13,NNW,331,2.0,2.0,85,0.00,CLR,,0.00,0.0,WeatherDisplay:10.37,2013-06-06 21:20:00,
2013-06-06 23:25:00,56.7,52.6,30.13,NNW,331,1.2,0.0,86,0.00,CLR,,0.00,0.0,WeatherDisplay:10.37,2013-06-06 21:25:00,
2013-06-06 23:30:00,56.5,52.4,30.13,NNW,331,1.2,1.2,86,0.00,CLR,,0.00,0.0,WeatherDisplay:10.37,2013-06-06 21:30:00,
2013-06-06 23:35:00,56.4,52.3,30.13,NNW,331,1.0,1.0,86,0.00,CLR,,0.00,0.0,WeatherDisplay:10.37,2013-06-06 21:35:00,
2013-06-06 23:40:00,56.3,52.2,30.13,NNW,331,1.2,1.2,86,0.00,CLR,,0.00,0.0,WeatherDisplay:10.37,2013-06-06 21:40:00,
2013-06-06 23:45:00,56.2,52.1,30.13,NNW,331,1.2,0.0,86,0.00,CLR,,0.00,0.0,WeatherDisplay:10.37,2013-06-06 21:45:00,
2013-06-06 23:50:00,56.0,51.9,30.13,NNW,331,1.2,1.2,86,0.00,CLR,,0.00,0.0,WeatherDisplay:10.37,2013-06-06 21:50:00,
2013-06-06 23:55:00,55.8,51.7,30.13,NNW,331,1.2,0.0,86,0.00,CLR,,0.00,0.0,WeatherDisplay:10.37,2013-06-06 21:55:00,